TimeEDT,TemperatureF,Dew PointF,Humidity,Sea Level PressureIn,VisibilityMPH,Wind Direction,Wind SpeedMPH,Gust SpeedMPH,PrecipitationIn,Events,Conditions,WindDirDegrees,DateUTC
12:56 AM,34.0,19.0,54,29.80,10.0,West,8.1,-,N/A,,Clear,280,2013-03-14 04:56:00
1:56 AM,33.1,19.9,59,29.80,10.0,WSW,5.8,-,N/A,,Clear,250,2013-03-14 05:56:00
2:56 AM,32.0,21.0,64,29.80,10.0,WSW,5.8,-,N/A,,Clear,240,2013-03-14 06:56:00
3:56 AM,32.0,21.9,66,29.79,10.0,West,6.9,-,N/A,,Mostly Cloudy,260,2013-03-14 07:56:00
4:56 AM,30.0,19.9,66,29.78,10.0,WSW,4.6,-,N/A,,Clear,250,2013-03-14 08:56:00
5:56 AM,32.0,18.0,56,29.79,10.0,West,11.5,-,N/A,,Overcast,280,2013-03-14 09:56:00
6:56 AM,30.9,15.1,52,29.81,10.0,West,10.4,-,N/A,,Overcast,270,2013-03-14 10:56:00
7:56 AM,30.9,15.1,52,29.82,10.0,WNW,10.4,-,N/A,,Overcast,290,2013-03-14 11:56:00
8:56 AM,30.9,14.0,50,29.82,10.0,West,8.1,17.3,N/A,,Overcast,280,2013-03-14 12:56:00
9:56 AM,32.0,12.0,44,29.82,10.0,West,13.8,21.9,N/A,,Overcast,280,2013-03-14 13:56:00
10:56 AM,34.0,10.9,38,29.81,10.0,WNW,13.8,-,N/A,,Overcast,290,2013-03-14 14:56:00
11:56 AM,35.1,12.0,39,29.78,10.0,West,12.7,-,N/A,,Overcast,270,2013-03-14 15:56:00
12:56 PM,35.1,10.0,35,29.77,10.0,West,15.0,24.2,N/A,,Mostly Cloudy,260,2013-03-14 16:56:00
1:56 PM,34.0,9.0,35,29.76,10.0,West,19.6,26.5,N/A,,Overcast,280,2013-03-14 17:56:00
2:56 PM,32.0,9.0,38,29.75,10.0,West,18.4,25.3,N/A,,Mostly Cloudy,280,2013-03-14 18:56:00
3:56 PM,32.0,9.0,38,29.75,10.0,WNW,18.4,-,N/A,,Mostly Cloudy,300,2013-03-14 19:56:00
4:56 PM,30.2,8.6,40,29.71,10.0,West,18.4,25.3,N/A,,Mostly Cloudy,280,2013-03-14 20:56:00
5:56 PM,28.9,8.1,41,29.79,10.0,West,20.7,28.8,N/A,,Mostly Cloudy,280,2013-03-14 21:56:00
6:56 PM,26.1,7.0,44,29.81,10.0,West,19.6,33.4,N/A,,Clear,280,2013-03-14 22:56:00
7:56 PM,26.1,7.0,44,29.84,10.0,WNW,19.6,25.3,N/A,,Mostly Cloudy,290,2013-03-14 23:56:00
8:56 PM,24.1,5.0,44,29.87,10.0,WNW,19.6,29.9,N/A,,Clear,300,2013-03-15 00:56:00
9:56 PM,23.0,5.0,46,29.87,10.0,WNW,16.1,-,N/A,,Partly Cloudy,290,2013-03-15 01:56:00
10:56 PM,21.9,3.9,46,29.88,10.0,NW,13.8,23.0,N/A,,Mostly Cloudy,310,2013-03-15 02:56:00
11:56 PM,21.0,5.0,50,29.88,10.0,WNW,12.7,-,N/A,,Partly Cloudy,300,2013-03-15 03:56:00